Location: *
(41.8544°N, 74.5544°W)
Time: 02:13:13
(UTC+00:00)

Daily predictions for brighter satellites

Satellite Brightness Start Highest point End
(mag) Time Altitude Azimuth Time Altitude Azimuth Time Altitude Azimuth
H-2A R/B 2.5 00:10:51 55° NW 00:10:51 55° NW 00:14:58 10° NNW
Cosmos 923 Rocket 4.3 00:04:43 10° SSW 00:09:09 63° SW 00:09:09 63° SW
NOSS 3-2 (A) 3.7 00:21:42 10° SW 00:26:19 59° WSW 00:26:19 59° WSW
USA 215 4.0 00:34:27 42° NNW 00:35:03 43° NNW 00:41:08 10° W
USA 238 DEB 4.1 00:38:20 10° SW 00:43:43 56° W 00:43:43 56° W
USA 238 4.1 00:38:25 10° SW 00:43:47 56° W 00:43:47 56° W
USA 267 4.3 01:09:12 40° WNW 01:09:12 40° WNW 01:13:18 10° NW
CZ-4C R/B 4.1 08:41:38 20° ESE 08:42:03 20° ESE 08:45:55 10° ENE
ATLAS 3B R/B 4.2 08:52:25 25° N 08:54:31 29° NE 09:00:36 10° E
Milstar 3 Cent rocket 4.1 08:57:58 29° S 08:58:55 30° SSE 09:07:46 10° ESE
ATLAS CENTAUR R/B 3.9 09:20:41 14° NE 09:20:41 14° NE 09:22:46 10° ENE
NOSS 3-4 (A) 3.4 09:23:18 66° N 09:23:18 66° N 09:28:44 10° NNE
NOSS 3-4 (C) 3.4 09:23:22 68° N 09:23:22 68° N 09:28:52 10° NE
NOSS 3-2 (C) 4.0 09:22:37 65° WNW 09:23:45 74° WSW 09:32:21 10° SSE
CENTAUR R/B 3.1 09:23:19 60° WNW 09:24:58 74° WSW 09:33:49 10° SSE
Lacrosse 5 2.3 09:29:47 56° NE 09:29:47 56° NE 09:33:47 10° NE
OAO 2 Rocket 4.3 09:33:59 37° S 09:33:59 37° S 09:38:29 10° ESE
SJ 16-02 3.1 09:37:06 23° NNE 09:37:06 23° NNE 09:38:47 10° NNE
Atlas Centaur 2 3.8 09:34:29 24° SSW 09:36:05 27° S 09:40:54 10° ESE
ADEOS 3.6 09:32:58 10° NNE 09:38:13 75° ESE 09:43:25 10° S
ATLAS 2AS CENTAUR R/B 2.9 09:38:11 36° SW 09:41:57 79° NW 09:49:52 10° NNE
Cosmos 2263 Rocket 3.3 09:48:25 29° NNW 09:48:25 29° NNW 09:51:38 10° NNE
Gbstr 26 Del rocket 3.6 09:51:12 40° NE 09:51:12 40° NE 09:54:38 10° E
Cosmos 1898 Rocket 4.1 09:46:40 10° S 09:51:51 59° ESE 09:57:06 10° NNE
Cosmos 1408 Rocket 3.9 09:47:32 10° S 09:51:56 64° E 09:56:21 10° NNE
Cosmos 1689 Rocket 4.1 09:51:23 10° SE 09:53:48 25° ENE 09:54:03 25° ENE
COSMO-SKYMED 1 3.2 09:52:05 10° SSE 09:56:19 55° ENE 09:59:36 16° N
Meteor 1-26 Rocket 4.1 09:56:27 13° NNW 10:01:35 82° W 10:07:09 10° S
Lacrosse 4 Rocket 1.6 10:03:37 57° SW 10:03:37 57° SW 10:07:41 10° SSE
SAR-Lupe-4 3.9 10:01:04 10° SSE 10:04:35 65° ENE 10:05:35 42° N
FENGYUN 3A 3.7 10:00:04 10° N 10:05:21 55° WNW 10:10:35 10° SSW
CZ-4B R/B 3.5 10:03:17 10° NNE 10:07:46 65° E 10:12:05 10° S
Cosmos 1937 Rocket 4.0 10:03:35 10° S 10:08:37 59° ESE 10:13:43 10° NNE
Genesis I 3.0 10:09:54 51° SSW 10:10:48 89° SE 10:14:40 10° NE
CZ-4B R/B 3.8 10:12:04 10° S 10:12:24 12° S 10:12:24 12° S
Cosmos 1709 Rocket 4.4 10:13:38 10° SW 10:19:30 38° WNW 10:25:25 10° N
Meteor 2-3 Rocket 3.9 10:14:06 10° SSW 10:19:37 49° WNW 10:25:13 10° N
Cosmos 2181 Rocket 3.9 10:14:07 10° NNW 10:20:10 58° W 10:26:09 10° S
SKYMED 3 4.4 10:15:59 10° S 10:20:19 80° WSW 10:23:53 15° NNW
SAR-Lupe-1 3.9 10:18:00 10° S 10:21:34 80° WSW 10:23:05 33° NNW
Cosmos 1943 4.0 10:23:32 29° W 10:23:44 29° WSW 10:28:33 10° SSW
NOSS 7 (H) 4.1 10:22:51 37° SW 10:24:03 82° WNW 10:27:03 10° NNE
deb Chang Zheng 4 3.7 10:20:03 10° N 10:24:15 50° WNW 10:28:27 10° SSW
Cosmos 405 Rocket 3.3 10:23:01 10° S 10:26:37 55° E 10:30:17 10° NNE
ALOS 3.5 10:24:42 10° N 10:27:11 24° NW 10:27:11 24° NW
Cosmos 2154 Rocket 4.4 10:22:49 10° S 10:28:56 65° E 10:35:09 10° NNE
CZ-4C R/B 2.1 10:26:54 23° WSW 10:29:51 54° NW 10:35:36 10° NNE
Cosmos 858 Rocket 4.4 10:27:47 10° SSW 10:33:00 85° WNW 10:38:17 10° NNE
BREEZE M DEB (TANK) 3.4 10:22:25 10° SW 10:33:16 68° SSE 10:36:31 10° ENE
Cosmos 1812 3.3 10:29:40 10° N 10:33:28 58° E 10:37:14 10° SSE
FALCON 9 DEB 4.2 10:33:54 27° NNW 10:33:54 27° NNW 10:36:24 10° NE
Cosmos 990 Rocket 4.1 10:28:48 10° SW 10:33:53 52° WNW 10:39:02 10° N
GPS 2-04 Rocket1 3.9 10:33:14 21° SW 10:35:03 31° S 10:38:27 10° ESE
Cosmos 923 Rocket 4.5 10:35:15 23° NW 10:37:55 39° WSW 10:42:49 10° S
SL-4 R/B 3.6 10:37:22 17° NNW 10:38:25 19° N 10:41:08 10° NE
ERS-2 3.5 10:35:28 10° SSW 10:37:36 22° WSW 10:37:36 22° WSW
PSLV R/B 3.9 10:36:27 10° S 10:40:34 65° W 10:44:40 10° NNW
Cosmos 1782 3.3 10:39:15 24° NW 10:41:01 37° W 10:44:44 10° SSW
Cosmos 1515 Rocket 3.8 10:38:26 10° NNW 10:42:46 49° W 10:47:04 10° SSW
Cosmos 2228 Rocket 3.2 10:38:53 10° N 10:43:19 78° E 10:47:42 10° SSE
SKYMED 2 3.9 10:40:18 10° S 10:44:25 43° W 10:48:13 12° NNW
Cosmos 1151 Rocket 4.2 10:44:42 22° W 10:44:42 22° W 10:47:47 10° SW
ATLAS 3B R/B 2.8 10:39:42 14° NW 10:45:49 74° WSW 10:53:02 10° SSE
Cosmos 2327 Rocket 4.4 10:41:55 10° S 10:48:01 87° W 10:54:08 10° N
Cosmos 2074 Rocket 4.0 10:43:24 10° SSW 10:49:29 56° WNW 10:55:35 10° N
RESURS DK-1 3.1 10:51:35 10° WSW 10:55:17 31° WNW 10:59:02 10° N
Meteor PRIRODA 4.2 10:52:15 10° N 10:55:42 36° WNW 10:59:07 10° SW
ATLAS CENTAUR R/B 1.2 10:56:53 16° NW 10:59:50 64° WSW 11:03:47 10° SSE
Cosmos 1295 Rocket 4.4 10:54:24 10° S 11:00:29 89° W 11:06:37 10° N
H-2A R/B 2.8 10:57:31 10° N 11:01:20 53° WNW 11:05:06 10° SSW
BREEZE-M DEB 3.6 10:53:01 14° WNW 11:01:21 89° NNE 11:04:29 10° ESE
Cosmos 1500 Rocket 3.9 10:59:50 10° SSW 11:03:53 40° WNW 11:07:58 10° N
Cosmos 1844 Rocket 3.0 10:59:08 10° SW 11:04:31 44° WNW 11:09:56 10° NNE
Cosmos 1437 Rocket 2.7 11:00:45 10° N 11:04:32 82° E 11:08:18 10° SSE
Cosmos 1680 Rocket 4.4 11:01:32 12° NW 11:05:40 29° W 11:10:11 10° SSW
Cosmos 2184 Rocket 4.3 11:01:22 10° SSW 11:07:19 43° WNW 11:13:22 10° N
Lacrosse 5 3.1 11:09:03 13° WNW 11:12:17 24° NNW 11:16:21 10° NNE
SJ 16-02 3.4 11:14:10 10° NW 11:14:10 10° NW 11:14:15 10° NW
Okean O Rocket 2.4 11:10:04 10° NNE 11:14:28 58° E 11:18:51 10° S
NOAA 6 4.0 11:09:42 10° N 11:14:50 79° WNW 11:19:56 10° SSW
Cosmos 372 Rocket 3.9 11:11:35 10° SSW 11:16:38 68° WNW 11:21:44 10° NNE
EO 1 Delta rocket 4.3 11:12:01 10° SSW 11:16:53 42° W 11:21:18 10° NNW
COSMOS 2455 2.8 11:11:09 10° SW 11:17:10 73° WNW 11:23:13 10° NNE
Cosmos 1844 4.0 11:13:54 10° SW 11:19:08 41° WNW 11:24:25 10° NNE
MOS 1-B 4.3 11:14:01 10° NNE 11:19:51 81° WNW 11:25:39 10° SSW
SMAP 3.2 11:16:32 10° NNE 11:21:12 80° ESE 11:25:51 10° S
USA 234 3.3 11:14:40 10° NE 11:21:14 89° ESE 11:27:48 10° SW
Sich 1 3.0 11:19:39 10° SSW 11:24:03 67° W 11:28:30 10° N
BREEZE-M (TANK) 3.4 11:15:49 10° SW 11:24:25 67° SSE 11:27:12 10° ENE
Atlas Centaur 2 3.8 11:19:43 10° WSW 11:24:26 23° SSW 11:28:24 10° SE
CZ-4B DEB 4.2 11:19:03 10° N 11:24:27 64° WNW 11:29:50 10° SSW
Cosmos 1689 Rocket 4.1 11:24:02 10° WSW 11:24:58 11° W 11:25:54 10° WNW
USA 81 4.2 11:19:44 10° S 11:24:59 84° E 11:30:17 10° N
H-2A R/B 2.4 11:25:58 10° N 11:29:40 48° WNW 11:33:21 10° SSW
Aureole 2 Rocket 3.3 11:28:07 10° WSW 11:29:51 16° WNW 11:31:34 10° NNW
PAYLOAD B 4.2 11:26:00 10° N 11:31:29 68° WNW 11:36:55 10° SSW
COSMO-SKYMED 1 4.4 11:30:43 10° WSW 11:32:49 13° W 11:34:56 10° WNW
AQUARIUS 4.2 11:28:30 10° NNE 11:33:02 86° W 11:37:31 10° SSW
ATLAS 2AS CENTAUR R/B 4.0 11:27:47 10° W 11:34:11 26° NNW 11:40:27 10° NNE
ATLAS 5 CENTAUR R/B 1.5 11:30:42 10° SSW 11:34:41 82° SE 11:39:07 10° NE
